SCP
0 0 0 0 0 0 0 0 0 0 0 0 0 0 0 0 0 0 0 0 0 0 0 0 0 0 0 0 0 0 0 0 0 0 0 0 0 0 0 0 0 0 0 0
0 0 0 0 0 0 0 0 0 0 0 0 0 0 0 0 0 0 0 0 0 0 0 0 0 0 0 0 0 0 0 0 0 0 0 0 0 0 0 0 0 0 0 0
0 0 0 0 0 0 0 0 0 0 0 0 0 -0 -0 0 0 0 0 0 0 0 0 0 0 0 0 0 0 0 0 0 0 0 0 0 0 0 0 0 0 0 0 0
0 0 0 0 0 0 0 0 0 0 0 0 0 0 -0 0 0 0 0 0 0 0 0 0 0 0 0 0 0 0 0 0 0 0 0 0 0 0 0 0 0 0 0 0
0 0 0 0 0 0 0 0 0 0 0 0 0 0 -0 0 0 0 0 0 0 0 0 0 0 0 0 0 0 0 0 0 0 0 0 0 0 0 0 0 0 0 0 0
0 0 0 0 0 0 0 0 0 0 0 0 0 0 -0 0 0 0 0 0 0 0 0 0 0 0 0 0 0 0 0 0 0 0 0 0 0 0 0 0 0 0 0 0
0 0 0 0 0 0 0 0 0 0 0 0 0 0 0 0 0 0 0 0 0 0 0 0 0 0 0 0 0 0 0 0 0 0 0 0 0 0 0 0 0 0 0 0
0 0 0 0 0 0 0 0 0 0 0 0 0 0 0 0 0 0 0 0 0 0 0 0 0 0 0 0 0 0 0 0 0 0 0 0 0 0 0 0 0 0 0 0
0 0 0 0 0 0 0 0 0 0 0 0 0 0 0 0 0 0 0 0 0 0 0 0 0 0 0 0 0 0 0 0 0 0 0 0 0 0 0 0 0 0 0 0
0 0 0 0 0 0 0 0 0 0 0 0 0 0 0 0 0 0 0 0 0 0 0 0 0 0 0 0 0 0 0 0 0 0 0 0 0 0 0 0 0 0 0 0
0 0 0 0 0 0 0 0 0 0 0 0 0 0 0 0 0 0 0 0 0 0 0 0 0 0 0 0 0 0 0 0 0 0 0 0 0 0 0 0 0 0 0 0
0 0 0 0 0 0 0 0 0 0 0 0 0 0 0 0 0 0 0 0 0 0 0 0 0 0 0 0 0 0 0 0 0 0 0 0 0 0 0 0 0 0 0 0
0 0 0 0 0 0 0 0 0 0 0 0 0 0 0 0 0 0 0 0 0 -0 -0 -0 0 0 0 0 0 0 0 0 0 0 0 0 0 0 0 0 0 0 0 0
0 0 0 0 0 0 0 0 0 0 0 0 0 0 0 0 0 0 0 -0 -0 -0 -0 -0 0 0 0 0 0 0 0 0 0 0 0 0 0 0 0 0 0 0 0 0
0 0 0 0 0 0 0 0 0 0 0 0 0 0 0 0 0 0 0 0 0 -0 -0 -0 0 0 0 0 0 0 0 0 0 0 0 0 0 0 0 0 0 0 0 0
0 0 0 0 0 0 0 0 0 0 0 0 0 0 -0 0 0 0 0 0 -0 -0 -0 -0 -0 0 0 0 0 0 0 0 0 0 0 0 0 0 0 0 0 0 0 0
0 0 0 0 0 0 0 0 0 0 0 0 0 0 0 0 0 0 0 0 0 -0 -0 -0 -0 0 0 0 0 0 0 0 0 0 0 0 0 0 0 0 0 0 0 0
0 0 0 0 0 0 0 0 0 0 0 0 0 0 0 0 0 0 0 0 0 -0 -0 -0 -0 0 0 0 0 0 0 0 0 0 0 0 0 0 0 0 0 0 0 0
0 0 0 0 0 0 0 0 0 0 -0 0 0 0 0 0 0 0 0 0 0 0 -0 -0 0 0 0 0 0 0 0 0 0 0 0 0 0 0 0 0 0 0 0 0
0 0 0 0 0 0 0 0 0 0 -0 0 0 0 0 0 0 0 0 0 0 -0 -0 -0 0 0 0 0 0 0 0 0 0 0 0 0 0 0 0 0 0 0 0 0
0 0 0 0 0 0 0 0 0 0 0 0 0 -0 0 0 0 0 0 0 0 -0 -0 0 0 0 0 0 0 0 0 0 0 0 0 0 0 0 0 0 0 0 0 0
0 0 0 0 0 0 0 0 0 0 0 -0 -0 -0 -0 0 0 0 0 0 0 0 0 0 0 0 0 0 0 0 0 0 0 0 0 0 0 0 0 0 0 0 0 0
0 0 0 0 0 0 0 0 0 0 0 0 -0 -0 -0 -0 0 0 0 0 0 0 0 0 0 0 0 0 0 0 0 0 0 0 0 0 0 0 0 0 0 0 0 0
0 0 0 0 0 0 0 0 0 0 0 -0 -0 0 -0 0 0 0 0 0 0 0 0 0 0 0 0 0 0 0 0 0 0 0 0 0 0 0 0 0 0 0 0 0
0 0 0 0 0 0 0 0 0 0 0 -0 0 0 -0 0 0 0 0 0 0 0 0 0 0 0 0 0 0 0 0 0 0 0 0 0 0 0 0 0 0 0 0 0
0 0 0 0 0 0 0 0 0 0 0 0 0 0 0 0 0 0 0 0 0 0 0 0 0 0 0 0 0 0 0 0 0 0 0 0 0 0 0 0 0 0 0 0
Wind_Speed_500mb
16 11 24 27 23 12 6 1 5 9 8 9 16 29 18 45 57 51 69 77 73 74 77 76 73 78 85 82 82 82 84 86 82 81 81 80 81 73 70 68 63 58 57 54
9 34 15 10 16 23 26 27 18 6 9 5 15 46 36 29 37 58 68 66 82 86 76 77 77 87 91 92 89 86 91 91 89 89 86 86 81 80 76 70 69 67 63 59
20 3 27 17 18 28 38 42 34 27 11 12 14 48 35 18 58 72 83 70 76 87 93 91 88 87 89 93 95 97 94 95 97 95 91 90 86 87 86 84 78 76 70 65
18 26 3 16 29 25 32 14 17 30 12 12 7 23 41 19 25 42 70 62 77 89 100 102 101 95 89 93 98 96 97 101 102 99 101 100 98 100 95 89 84 81 73 72
16 17 35 29 12 18 14 8 14 13 23 23 40 17 7 5 22 32 43 67 74 87 93 103 119 114 106 103 99 103 102 104 106 106 104 107 105 102 95 91 88 85 81 77
10 6 16 19 27 26 7 4 4 2 10 19 37 24 47 22 43 22 38 76 70 79 92 98 104 114 114 97 100 99 106 107 109 108 106 107 110 103 102 97 91 86 81 80
14 28 1 6 10 19 14 11 5 8 11 23 11 23 50 19 21 25 29 57 70 75 80 97 96 103 106 107 105 108 104 108 110 111 108 102 108 107 104 98 91 89 83 80
23 10 31 20 30 9 32 34 8 15 11 10 7 22 32 27 52 76 85 85 87 81 88 95 97 101 103 99 98 106 117 112 109 110 106 102 98 107 98 96 91 90 86 79
14 15 1 6 9 20 11 25 48 14 6 10 11 18 24 44 46 34 52 67 82 93 101 113 112 105 107 105 98 100 113 115 113 108 101 101 101 101 93 90 88 87 84 81
12 6 11 8 12 28 34 9 9 15 14 22 14 15 24 34 38 16 25 50 80 102 93 109 120 108 100 106 98 91 105 110 107 103 98 100 99 94 91 89 88 85 83 81
11 9 6 12 19 26 18 31 15 8 19 18 24 19 31 51 51 39 44 73 79 94 93 98 119 101 94 97 90 96 95 107 106 99 96 101 97 92 89 91 90 85 81 77
24 5 8 21 3 20 28 38 44 25 23 16 30 43 53 37 16 22 47 70 79 82 74 83 92 92 89 81 87 91 91 101 105 97 94 98 90 88 87 88 87 82 79 74
26 11 3 16 6 7 19 32 33 36 32 44 34 33 59 27 26 49 61 78 84 97 96 95 89 89 87 81 83 87 88 93 98 95 94 95 91 87 82 81 77 77 76 66
53 10 17 25 9 7 13 41 38 40 29 43 35 63 76 66 38 44 85 82 84 85 83 87 83 83 78 75 79 79 81 85 89 88 90 92 85 79 73 70 69 69 66 58
22 14 16 26 17 12 15 20 29 45 51 37 59 53 73 71 42 54 72 86 80 89 80 69 67 69 62 65 72 70 71 77 79 82 80 82 76 70 67 63 62 62 59 57
12 8 10 27 17 23 32 40 37 46 53 42 64 69 95 66 57 42 53 56 61 72 74 66 57 63 63 56 56 60 68 71 72 72 71 71 70 69 68 64 61 59 57 55
14 11 8 13 7 4 17 40 37 39 47 44 50 89 73 58 50 61 82 82 64 57 69 71 65 61 61 51 42 42 54 65 68 66 64 65 65 62 60 56 55 55 56 56
15 9 6 9 7 13 32 16 17 30 42 45 67 76 67 64 76 83 82 82 75 86 81 80 68 65 55 46 44 44 46 53 56 55 57 58 56 55 53 50 46 45 46 46
11 9 3 6 12 31 33 15 14 15 75 35 56 59 66 95 73 88 85 93 94 84 74 61 56 59 50 49 50 51 53 51 52 54 52 51 49 47 43 41 40 40 40 43
19 16 12 4 11 15 6 15 29 16 44 22 44 53 61 48 32 49 81 85 63 68 56 44 42 44 48 48 51 53 55 54 53 51 49 47 45 42 40 40 40 42 43 39
14 21 38 28 24 15 16 14 16 21 18 22 18 47 51 34 63 97 53 54 72 75 72 44 35 41 48 52 52 53 55 53 50 48 47 45 40 38 37 37 36 35 31 28
21 17 12 17 20 33 28 4 18 18 33 32 45 56 59 60 78 73 73 62 42 55 79 59 49 45 48 52 52 51 49 48 48 47 44 41 38 36 33 29 27 26 27 29
8 17 11 22 15 13 18 34 41 44 41 53 37 54 56 47 58 59 75 71 54 47 51 64 57 53 51 48 46 48 46 44 44 41 37 34 31 28 26 27 27 27 26 25
12 7 23 19 27 26 53 74 69 65 69 72 66 64 60 59 49 55 70 71 68 60 59 63 63 55 51 50 46 41 42 38 35 34 32 31 31 31 30 29 29 29 29 28
13 13 15 36 36 30 59 72 70 68 62 63 64 56 59 60 45 39 62 76 84 68 65 61 58 53 48 45 42 40 35 30 31 35 37 37 37 37 39 38 33 29 27 22
13 18 17 27 4 6 19 27 40 53 56 57 50 53 46 42 45 45 52 66 82 83 64 60 60 56 47 44 38 34 33 33 36 41 43 44 44 42 39 36 39 31 25 21
Wind_Direction_500mb
185 202 213 206 226 248 99 86 226 348 312 292 266 279 246 251 262 260 257 253 253 249 247 252 251 248 246 244 242 241 240 236 235 234 233 233 233 233 233 233 231 232 233 233
176 229 214 212 222 237 246 253 264 274 266 287 308 281 274 228 250 256 255 246 248 255 252 252 254 251 247 247 246 243 242 239 236 238 237 237 237 237 237 238 236 232 234 235
200 175 166 183 210 232 238 242 250 260 322 281 319 288 269 236 234 252 256 251 251 251 253 252 251 253 253 247 247 245 245 244 240 236 238 238 240 241 239 237 237 236 236 237
246 241 97 207 215 201 240 213 248 252 275 263 164 281 277 275 250 232 252 252 241 245 253 253 251 248 248 250 249 247 246 246 243 240 236 238 238 240 240 240 240 240 239 241
214 186 212 228 213 183 240 237 198 193 227 271 254 273 294 24 265 247 240 249 242 249 253 255 253 247 244 247 251 249 246 244 244 242 239 241 240 243 246 247 246 244 243 244
208 210 176 211 210 204 72 239 306 167 225 235 239 205 279 240 253 252 244 250 250 252 257 254 255 252 245 245 246 248 244 242 242 243 241 241 243 242 243 244 247 248 247 245
176 217 278 200 167 200 184 167 251 230 210 242 167 190 243 262 252 269 259 257 260 255 257 265 259 246 243 239 240 242 241 240 240 240 241 241 243 244 246 247 248 248 249 246
212 290 197 182 210 173 203 205 190 202 201 248 150 214 238 264 256 255 257 259 267 263 255 257 262 256 247 241 239 239 238 238 238 238 239 240 240 242 244 246 247 248 247 249
178 247 324 213 159 194 179 208 222 289 275 289 243 277 293 276 268 263 258 259 261 262 256 254 253 258 253 244 238 239 238 238 238 235 237 237 236 239 242 242 244 246 246 247
199 278 204 156 125 216 209 130 192 207 241 247 242 243 249 274 272 282 268 260 261 264 258 260 258 255 254 247 244 240 237 235 235 234 235 236 235 238 240 242 243 243 244 245
168 158 307 131 207 189 197 235 242 239 231 246 256 253 242 255 264 270 265 265 264 267 264 261 261 261 253 247 241 236 233 231 229 230 234 233 233 236 237 240 242 244 245 246
188 126 200 217 270 192 215 216 214 221 226 240 255 257 268 262 275 300 294 285 281 276 281 275 267 266 249 245 238 234 231 227 227 231 235 232 233 236 236 239 241 245 246 247
164 216 337 328 294 239 209 226 232 232 254 251 257 267 266 262 268 279 280 280 278 284 292 287 273 259 243 242 237 231 227 225 226 229 231 229 230 233 236 238 240 243 247 248
165 169 198 216 177 122 190 229 227 229 243 251 246 254 264 263 266 275 278 288 293 292 291 287 274 248 235 236 229 226 225 223 224 227 228 228 229 232 233 235 238 240 245 247
176 211 202 251 274 298 243 245 237 234 240 240 256 247 259 264 261 266 274 276 285 293 291 276 265 248 235 227 224 223 223 221 220 223 225 228 229 229 231 231 232 235 238 242
192 249 190 263 259 240 258 261 252 242 251 251 255 267 251 272 271 276 281 288 292 300 297 279 265 255 234 232 220 217 219 218 218 218 219 222 223 223 225 227 230 234 237 238
151 162 145 263 164 224 277 239 239 247 240 244 248 249 266 264 259 258 265 268 272 297 310 290 270 253 235 224 222 212 212 210 210 210 212 214 217 220 222 224 226 227 224 227
149 124 113 250 48 260 258 167 189 228 244 235 246 259 264 262 264 261 255 255 266 283 288 303 275 254 230 213 207 197 192 191 193 195 201 204 206 210 214 216 217 219 221 224
157 139 250 190 211 272 276 266 244 238 267 248 253 260 256 257 262 264 253 252 261 268 277 297 270 242 223 204 199 193 185 185 185 189 193 196 197 196 196 198 202 207 212 217
216 208 190 134 239 235 282 205 221 261 269 225 249 251 254 257 249 262 260 262 264 270 280 288 248 218 209 195 192 187 181 178 176 178 180 184 186 187 190 196 201 207 209 213
186 212 223 229 243 268 231 251 253 232 270 241 266 252 260 238 236 256 264 262 262 265 274 269 224 195 185 182 178 177 176 175 175 178 182 184 186 190 194 200 202 207 208 209
178 175 200 217 239 260 215 67 210 248 304 318 316 306 282 252 249 251 254 256 248 258 242 246 216 195 185 181 179 180 179 178 181 184 185 185 185 190 193 194 197 200 205 207
237 194 187 193 209 225 231 225 256 275 282 284 309 316 305 302 275 251 238 236 241 250 222 212 201 195 187 181 180 186 181 182 181 182 184 185 187 193 194 195 195 192 185 188
244 196 234 252 244 245 267 274 275 273 278 283 291 281 303 288 295 268 242 226 236 230 217 200 192 193 185 179 179 183 183 181 185 187 188 185 182 176 168 163 164 167 168 171
203 156 227 250 262 280 272 272 277 280 283 286 279 286 288 292 297 284 245 222 224 226 211 201 193 195 189 180 181 179 181 187 189 181 172 166 163 160 154 151 149 152 151 153
181 220 226 251 254 262 273 282 294 301 298 290 287 284 289 286 273 288 237 219 209 212 208 198 192 192 186 177 178 171 173 180 185 173 161 154 150 146 144 146 143 138 133 130
Wind_Speed_850mb
16 11 24 27 23 12 6 1 5 9 8 9 16 29 18 45 57 51 69 77 73 74 77 76 73 78 85 82 82 82 84 86 82 81 81 80 81 73 70 68 63 58 57 54
9 34 15 10 16 23 26 27 18 6 9 5 15 46 36 29 37 58 68 66 82 86 76 77 77 87 91 92 89 86 91 91 89 89 86 86 81 80 76 70 69 67 63 59
20 3 27 17 18 28 38 42 34 27 11 12 14 48 35 18 58 72 83 70 76 87 93 91 88 87 89 93 95 97 94 95 97 95 91 90 86 87 86 84 78 76 70 65
18 26 3 16 29 25 32 14 17 30 12 12 7 23 41 19 25 42 70 62 77 89 100 102 101 95 89 93 98 96 97 101 102 99 101 100 98 100 95 89 84 81 73 72
16 17 35 29 12 18 14 8 14 13 23 23 40 17 7 5 22 32 43 67 74 87 93 103 119 114 106 103 99 103 102 104 106 106 104 107 105 102 95 91 88 85 81 77
10 6 16 19 27 26 7 4 4 2 10 19 37 24 47 22 43 22 38 76 70 79 92 98 104 114 114 97 100 99 106 107 109 108 106 107 110 103 102 97 91 86 81 80
14 28 1 6 10 19 14 11 5 8 11 23 11 23 50 19 21 25 29 57 70 75 80 97 96 103 106 107 105 108 104 108 110 111 108 102 108 107 104 98 91 89 83 80
23 10 31 20 30 9 32 34 8 15 11 10 7 22 32 27 52 76 85 85 87 81 88 95 97 101 103 99 98 106 117 112 109 110 106 102 98 107 98 96 91 90 86 79
14 15 1 6 9 20 11 25 48 14 6 10 11 18 24 44 46 34 52 67 82 93 101 113 112 105 107 105 98 100 113 115 113 108 101 101 101 101 93 90 88 87 84 81
12 6 11 8 12 28 34 9 9 15 14 22 14 15 24 34 38 16 25 50 80 102 93 109 120 108 100 106 98 91 105 110 107 103 98 100 99 94 91 89 88 85 83 81
11 9 6 12 19 26 18 31 15 8 19 18 24 19 31 51 51 39 44 73 79 94 93 98 119 101 94 97 90 96 95 107 106 99 96 101 97 92 89 91 90 85 81 77
24 5 8 21 3 20 28 38 44 25 23 16 30 43 53 37 16 22 47 70 79 82 74 83 92 92 89 81 87 91 91 101 105 97 94 98 90 88 87 88 87 82 79 74
26 11 3 16 6 7 19 32 33 36 32 44 34 33 59 27 26 49 61 78 84 97 96 95 89 89 87 81 83 87 88 93 98 95 94 95 91 87 82 81 77 77 76 66
53 10 17 25 9 7 13 41 38 40 29 43 35 63 76 66 38 44 85 82 84 85 83 87 83 83 78 75 79 79 81 85 89 88 90 92 85 79 73 70 69 69 66 58
22 14 16 26 17 12 15 20 29 45 51 37 59 53 73 71 42 54 72 86 80 89 80 69 67 69 62 65 72 70 71 77 79 82 80 82 76 70 67 63 62 62 59 57
12 8 10 27 17 23 32 40 37 46 53 42 64 69 95 66 57 42 53 56 61 72 74 66 57 63 63 56 56 60 68 71 72 72 71 71 70 69 68 64 61 59 57 55
14 11 8 13 7 4 17 40 37 39 47 44 50 89 73 58 50 61 82 82 64 57 69 71 65 61 61 51 42 42 54 65 68 66 64 65 65 62 60 56 55 55 56 56
15 9 6 9 7 13 32 16 17 30 42 45 67 76 67 64 76 83 82 82 75 86 81 80 68 65 55 46 44 44 46 53 56 55 57 58 56 55 53 50 46 45 46 46
11 9 3 6 12 31 33 15 14 15 75 35 56 59 66 95 73 88 85 93 94 84 74 61 56 59 50 49 50 51 53 51 52 54 52 51 49 47 43 41 40 40 40 43
19 16 12 4 11 15 6 15 29 16 44 22 44 53 61 48 32 49 81 85 63 68 56 44 42 44 48 48 51 53 55 54 53 51 49 47 45 42 40 40 40 42 43 39
14 21 38 28 24 15 16 14 16 21 18 22 18 47 51 34 63 97 53 54 72 75 72 44 35 41 48 52 52 53 55 53 50 48 47 45 40 38 37 37 36 35 31 28
21 17 12 17 20 33 28 4 18 18 33 32 45 56 59 60 78 73 73 62 42 55 79 59 49 45 48 52 52 51 49 48 48 47 44 41 38 36 33 29 27 26 27 29
8 17 11 22 15 13 18 34 41 44 41 53 37 54 56 47 58 59 75 71 54 47 51 64 57 53 51 48 46 48 46 44 44 41 37 34 31 28 26 27 27 27 26 25
12 7 23 19 27 26 53 74 69 65 69 72 66 64 60 59 49 55 70 71 68 60 59 63 63 55 51 50 46 41 42 38 35 34 32 31 31 31 30 29 29 29 29 28
13 13 15 36 36 30 59 72 70 68 62 63 64 56 59 60 45 39 62 76 84 68 65 61 58 53 48 45 42 40 35 30 31 35 37 37 37 37 39 38 33 29 27 22
13 18 17 27 4 6 19 27 40 53 56 57 50 53 46 42 45 45 52 66 82 83 64 60 60 56 47 44 38 34 33 33 36 41 43 44 44 42 39 36 39 31 25 21
Wind_Direction_850mb
185 202 213 206 226 248 99 86 226 348 312 292 266 279 246 251 262 260 257 253 253 249 247 252 251 248 246 244 242 241 240 236 235 234 233 233 233 233 233 233 231 232 233 233
176 229 214 212 222 237 246 253 264 274 266 287 308 281 274 228 250 256 255 246 248 255 252 252 254 251 247 247 246 243 242 239 236 238 237 237 237 237 237 238 236 232 234 235
200 175 166 183 210 232 238 242 250 260 322 281 319 288 269 236 234 252 256 251 251 251 253 252 251 253 253 247 247 245 245 244 240 236 238 238 240 241 239 237 237 236 236 237
246 241 97 207 215 201 240 213 248 252 275 263 164 281 277 275 250 232 252 252 241 245 253 253 251 248 248 250 249 247 246 246 243 240 236 238 238 240 240 240 240 240 239 241
214 186 212 228 213 183 240 237 198 193 227 271 254 273 294 24 265 247 240 249 242 249 253 255 253 247 244 247 251 249 246 244 244 242 239 241 240 243 246 247 246 244 243 244
208 210 176 211 210 204 72 239 306 167 225 235 239 205 279 240 253 252 244 250 250 252 257 254 255 252 245 245 246 248 244 242 242 243 241 241 243 242 243 244 247 248 247 245
176 217 278 200 167 200 184 167 251 230 210 242 167 190 243 262 252 269 259 257 260 255 257 265 259 246 243 239 240 242 241 240 240 240 241 241 243 244 246 247 248 248 249 246
212 290 197 182 210 173 203 205 190 202 201 248 150 214 238 264 256 255 257 259 267 263 255 257 262 256 247 241 239 239 238 238 238 238 239 240 240 242 244 246 247 248 247 249
178 247 324 213 159 194 179 208 222 289 275 289 243 277 293 276 268 263 258 259 261 262 256 254 253 258 253 244 238 239 238 238 238 235 237 237 236 239 242 242 244 246 246 247
199 278 204 156 125 216 209 130 192 207 241 247 242 243 249 274 272 282 268 260 261 264 258 260 258 255 254 247 244 240 237 235 235 234 235 236 235 238 240 242 243 243 244 245
168 158 307 131 207 189 197 235 242 239 231 246 256 253 242 255 264 270 265 265 264 267 264 261 261 261 253 247 241 236 233 231 229 230 234 233 233 236 237 240 242 244 245 246
188 126 200 217 270 192 215 216 214 221 226 240 255 257 268 262 275 300 294 285 281 276 281 275 267 266 249 245 238 234 231 227 227 231 235 232 233 236 236 239 241 245 246 247
164 216 337 328 294 239 209 226 232 232 254 251 257 267 266 262 268 279 280 280 278 284 292 287 273 259 243 242 237 231 227 225 226 229 231 229 230 233 236 238 240 243 247 248
165 169 198 216 177 122 190 229 227 229 243 251 246 254 264 263 266 275 278 288 293 292 291 287 274 248 235 236 229 226 225 223 224 227 228 228 229 232 233 235 238 240 245 247
176 211 202 251 274 298 243 245 237 234 240 240 256 247 259 264 261 266 274 276 285 293 291 276 265 248 235 227 224 223 223 221 220 223 225 228 229 229 231 231 232 235 238 242
192 249 190 263 259 240 258 261 252 242 251 251 255 267 251 272 271 276 281 288 292 300 297 279 265 255 234 232 220 217 219 218 218 218 219 222 223 223 225 227 230 234 237 238
151 162 145 263 164 224 277 239 239 247 240 244 248 249 266 264 259 258 265 268 272 297 310 290 270 253 235 224 222 212 212 210 210 210 212 214 217 220 222 224 226 227 224 227
149 124 113 250 48 260 258 167 189 228 244 235 246 259 264 262 264 261 255 255 266 283 288 303 275 254 230 213 207 197 192 191 193 195 201 204 206 210 214 216 217 219 221 224
157 139 250 190 211 272 276 266 244 238 267 248 253 260 256 257 262 264 253 252 261 268 277 297 270 242 223 204 199 193 185 185 185 189 193 196 197 196 196 198 202 207 212 217
216 208 190 134 239 235 282 205 221 261 269 225 249 251 254 257 249 262 260 262 264 270 280 288 248 218 209 195 192 187 181 178 176 178 180 184 186 187 190 196 201 207 209 213
186 212 223 229 243 268 231 251 253 232 270 241 266 252 260 238 236 256 264 262 262 265 274 269 224 195 185 182 178 177 176 175 175 178 182 184 186 190 194 200 202 207 208 209
178 175 200 217 239 260 215 67 210 248 304 318 316 306 282 252 249 251 254 256 248 258 242 246 216 195 185 181 179 180 179 178 181 184 185 185 185 190 193 194 197 200 205 207
237 194 187 193 209 225 231 225 256 275 282 284 309 316 305 302 275 251 238 236 241 250 222 212 201 195 187 181 180 186 181 182 181 182 184 185 187 193 194 195 195 192 185 188
244 196 234 252 244 245 267 274 275 273 278 283 291 281 303 288 295 268 242 226 236 230 217 200 192 193 185 179 179 183 183 181 185 187 188 185 182 176 168 163 164 167 168 171
203 156 227 250 262 280 272 272 277 280 283 286 279 286 288 292 297 284 245 222 224 226 211 201 193 195 189 180 181 179 181 187 189 181 172 166 163 160 154 151 149 152 151 153
181 220 226 251 254 262 273 282 294 301 298 290 287 284 289 286 273 288 237 219 209 212 208 198 192 192 186 177 178 171 173 180 185 173 161 154 150 146 144 146 143 138 133 130